Regional Weather Roundup
Issued by NWS Bismarck, ND

Home | Current Version | Previous Version | Text Only | Print | Product List | Glossary On
Versions: 1 2 3 4 5 6 7 8 9 10 11 12 13 14 15 16 17 18 19 20 21 22 23 24 25 26 27 28 29 30 31 32 33 34 35 36 37 38 39 40 41 42 43 44 45 46 47 48 49 50
000
ASUS43 KBIS 272010
RWRBIS

NWR BROADCAST TEXT
NATIONAL WEATHER SERVICE BISMARCK ND
300 PM CDT SAT AUG 27 2016

NOTE: "FAIR" INDICATES FEW OR NO CLOUDS BELOW 12,000 FEET WITH NO
SIGNIFICANT WEATHER AND/OR OBSTRUCTIONS TO VISIBILITY.


CITY           SKY/WX    TMP DP  RH WIND       PRES   REMARKS
WILLISTON      SUNNY     78  42  27 S9G17     29.85F
MINOT          MOSUNNY   74  47  38 E6        29.87F
MINOT AFB      MOSUNNY   76  44  31 W12       29.86F
BISMARCK       SUNNY     78  49  35 SW10G17   29.91F
DICKINSON      SUNNY     76  38  25 VRB5      29.88F
GARRISON         N/A     76  50  40 S8        29.89F
HETTINGER ARPT SUNNY     79  46  31 S14       29.92F
JAMESTOWN      MOSUNNY   76  59  55 S10       29.89F
CARRINGTON     FAIR      75  54  46 SW8G14    29.92F
HAZEN          FAIR      75  45  33 SW5       29.91F
LINTON         FAIR      79  57  47 SW7       29.93F
MANDAN         FAIR      75  48  38 S8        29.91F
OAKES            N/A    N/A N/A N/A MISG        N/A
RUGBY          FAIR      75  50  41 SW6       29.88F
STANLEY        FAIR      73  46  38 SW8       29.90F
WATFORD CITY   FAIR      75  45  33 CALM      29.87F
$$

CITY           SKY/WX    TMP DP  RH WIND       PRES   REMARKS
GRAND FORKS    MOSUNNY   69  61  75 S13       29.89F
GRAND FORKS AF MOSUNNY   72  63  73 S13       29.89F THUNDER
DEVILS LAKE    NOT AVBL
FARGO          CLOUDY    72  61  68 S13       29.92F
CAVALIER       LGT RAIN  64  61  88 S12       29.88S
GRAFTON        FAIR      72  61  68 SE16G22   29.90F
GWINNER        FAIR      75  63  64 SW14G20   29.94S
LANGDON        FAIR      75  52  43 SW13G18   29.89S
ROLLA            N/A     68  48  49 W13       29.90F
$$

CITY           SKY/WX    TMP DP  RH WIND       PRES   REMARKS
ABERDEEN       MOSUNNY   77  61  57 S13       29.93F
MOBRIDGE       SUNNY     81  54  39 SE9       29.89F
BUFFALO          N/A     76  48  37 SE8       29.86F
RAPID CITY     SUNNY     79  55  43 SE13      29.93F
GLASGOW        SUNNY     79  44  28 S12G23    29.76F
WOLF POINT     SUNNY     83  44  25 S7        29.78F
GLENDIVE       MOSUNNY   80  45  28 S13       29.84F
MILES CITY     SUNNY     84  42  22 SW12G17   29.82F
BAKER          MOSUNNY   78  47  33 S15       29.89F
$$

CITY           SKY/WX    TMP DP  RH WIND       PRES   REMARKS
BILLINGS       CLOUDY    80  37  21 SW13      29.87F
GREAT FALLS    CLOUDY    82  35  18 SW21G30   29.77F
REGINA         PTSUNNY   77  46  33 S8G20     29.78F
ESTEVAN        MOSUNNY   75  43  31 S6        29.84F
$$




USA.gov is the U.S. government's official web portal to all federal, state and local government web resources and services.